Location: �terpigny
(49.8910°N, 2.9249°E)
Time: 04:15:40
(UTC+00:00)

Cosmos 614 Rocket - Pass Details

Date: 29 May 2022
Orbit: 732 x 764 km, 74.1° (Epoch: 06 July)

Event Time Altitude Azimuth Distance (km) Brightness Sun altitude
Rises 01:26:19 0° 335° (NNW) 3,218 7.9 -15.1°
Reaches altitude 10° 01:28:41 10° 334° (NNW) 2,294 7.0 -15.0°
Maximum altitude 01:33:53 79° 249° (WSW) 781 3.9 -14.6°
Enters shadow 01:38:50 11° 164° (SSE) 2,192 5.9 -14.2°
